Location: Heidgraben
(53.7081°N, 9.6576°E)
Time: 21:08:03
(UTC+00:00)

Iridium 2 - Pass Details

Date: 05 July 2020
Orbit: 503 x 516 km, 85.5° (Epoch: 14 August)

Event Time Altitude Azimuth Distance (km) Brightness Sun altitude
Rises 22:33:55 0° 349° (N) 2,654 9.4 -12.8°
Reaches altitude 10° 22:36:06 10° 343° (NNW) 1,761 7.9 -12.9°
Maximum altitude 22:39:48 46° 270° (W) 711 4.4 -13.0°
Enters shadow 22:42:28 17° 203° (SSW) 1,365 5.3 -13.0°
